Regional Weather Roundup
Issued by NWS Grand Forks, ND

Home | Current Version | Previous Version | Graphics & Text | Print | Product List | Glossary On
Versions: 1 2 3 4 5 6 7 8 9 10 11 12 13 14 15 16 17 18 19 20 21 22 23 24 25 26 27 28 29 30 31 32 33 34 35 36 37 38 39 40 41 42 43 44 45 46 47 48 49 50
000
ASUS43 KFGF 281210
RWRFGF
PRAIRIE TO PINES  WEATHER ROUNDUP
NATIONAL WEATHER SERVICE EASTERN NORTH DAKOTA/GRAND FORKS ND
700 AM CDT FRI AUG 28 2015

 **SATELLITE DATA USED TO AUGMENT SKY COVER AT AUTOMATED STATIONS**
 *****  WEATHER ACROSS EASTERN NORTH DAKOTA  *****

CITY           SKY/WX    TMP DP  RH WIND       PRES   REMARKS
GRAND FORKS    MOCLDY    63  61  93 S8        29.85F
6HR MIN TEMP:  62; 6HR MAX TEMP:  66;

GRAND FRKS AFB MOCLDY    62  61  96 SW5       29.86F
GRAND FRKS NWS   N/A     63 N/A N/A S3          N/A
DEVILS LAKE    CLOUDY    64  55  72 S9        29.85F
6HR MIN TEMP:  63; 6HR MAX TEMP:  70;

FARGO          CLOUDY    65  63  93 S9        29.90F FOG
WAHPETON ARPT  CLOUDY    61  59  94 S10G16    29.94S
$$

 ***** WEATHER ACROSS CENTRAL AND WESTERN NORTH DAKOTA  *****

CITY           SKY/WX    TMP DP  RH WIND       PRES   REMARKS
BISMARCK       CLEAR     59  58  96 SE6       29.91S
6HR MIN TEMP:  59; 6HR MAX TEMP:  68;

MINOT          PTCLDY    67  58  72 SW13      29.82S
6HR MIN TEMP:  66; 6HR MAX TEMP:  73;

JAMESTOWN      PTCLDY    59  57  93 CALM      29.90R
6HR MIN TEMP:  59; 6HR MAX TEMP:  65;

MINOT AFB      MOCLDY    65  64  94 W9        29.81S
GARRISON         N/A     62  58  86 NW3       29.88R
WILLISTON      PTCLDY    62  60  93 S3        29.88R
6HR MIN TEMP:  60; 6HR MAX TEMP:  67;

DICKINSON      CLEAR     58  54  86 SW3       29.91R
6HR MIN TEMP:  58; 6HR MAX TEMP:  64;

HETTINGER      PTCLDY    56  53  90 CALM      29.96S
6HR MIN TEMP:  53; 6HR MAX TEMP:  64;

$$

 *****  OTHER AIRPORT OBSERVATIONS IN OUR AREA  *****

CITY           SKY/WX    TMP DP  RH WIND       PRES   REMARKS
WALHALLA       FAIR      66  66 100 MISG      29.81F
GRAFTON AIRPOR FAIR      64  64 100 S8        29.83S
VALLEY CITY AR FAIR      59  59 100 SW7       29.90R FOG
CANDO          NOT AVBL
CAVALIER APRT  FAIR      63  61  94 CALM      29.82R
GWINNER          N/A     63  63 100 S7        29.93R
SHEYENNE NWR     N/A     60  60  99 S5        29.95S
ROLLA          PTSUNNY   63  63 100 S9        29.83F
 ***** THE ABOVE OBSERVATIONS ARE NON NWS ARE NOT QUALITY
       CONTROLLED AND MAY MIS-REPORT RAIN FOR SNOW...
$$

  *****  WEATHER ACROSS NORTHERN MINNESOTA  *****

CITY           SKY/WX    TMP DP  RH WIND       PRES   REMARKS
FLAG ISLAND    CLOUDY    64  63  94 S7        29.86S FOG
WARROAD        MOCLDY    61  55  82 SE7       29.86F FOG
ROSEAU         MOCLDY    64  57  77 SE8       29.84F
HALLOCK        MOCLDY    63  63 100 S7        29.82F
THF RVR FALLS  MOCLDY   N/A N/A N/A S8        29.89S
BAUDETTE       CLOUDY    61  60  97 CALM      29.89S
6HR MIN TEMP:  59; 6HR MAX TEMP:  62;

WASKISH        CLOUDY    64  63  94 S3        29.90F
CROOKSTON      PTCLDY    64  63  94 S7        29.89S FOG
STEPHEN NDAWN    N/A     64  64 100 SW3         N/A
GREENBUSH NDAW   N/A     64  64 100 S7          N/A
$$
  *****  WEATHER ACROSS CENTRAL AND WEST MINNESOTA  *****

CITY           SKY/WX    TMP DP  RH WIND       PRES   REMARKS
FOSSTON        CLEAR     63  61  94 S6        29.92F FOG
BEMIDJI        FOG       64  64  99 S5        29.93S VSB 1/4
PARK RAPIDS    FOG       64  63  96 S8        29.95S VSB 1/4
6HR MIN TEMP:  62; 6HR MAX TEMP:  65;

ELBOW LAKE     FAIR      60  60  99 S9        29.96S
6HR MIN TEMP:  60; 6HR MAX TEMP:  63;

WADENA         PTCLDY    61  61 100 S5        29.97R FOG
DETROIT LAKES  FOG       64  64 100 S7        29.95S VSB 1/4
MOORHEAD       PTCLDY    63  61  94 S6        29.93R FOG
FERGUS FALLS   CLEAR     61  61 100 S8        29.95S FOG
MORRIS MN      CLOUDY    63  63 100 SE3       29.97R FOG
STAPLES        PTCLDY    59  59 100 CALM      29.98R FOG
$$
  *****  WEATHER ELSEWHERE ACROSS MINNESOTA  *****

CITY           SKY/WX    TMP DP  RH WIND       PRES   REMARKS
DULUTH         CLOUDY    61  58  90 SW9       29.98R
6HR MIN TEMP:  58; 6HR MAX TEMP:  61;

INTRNTL FALLS  MOCLDY    61  60  97 CALM      29.91F
6HR MIN TEMP:  57; 6HR MAX TEMP:  62;

ELY            CLOUDY    61  57  88 SW5       29.96S
CLOQUET        CLOUDY    61  57  88 SW7       29.98S
WHEATON        CLOUDY    61  61 100 S5        29.97S
BRAINERD       CLOUDY    59  59 100 S6        29.98R FOG
6HR MIN TEMP:  59; 6HR MAX TEMP:  65;

HIBBING        FOG       58  57  97 CALM      29.96S VSB 1
6HR MIN TEMP:  50; 6HR MAX TEMP:  58;

ALEXANDRIA     PTCLDY    63  62  97 S10       30.00R
6HR MIN TEMP:  61; 6HR MAX TEMP:  64;

SAINT CLOUD    MOCLDY    58  57  97 S5        30.00R FOG
6HR MIN TEMP:  55; 6HR MAX TEMP:  61;

MINNEAPOLIS    CLOUDY    64  60  87 SE5       30.01R
6HR MIN TEMP:  63; 6HR MAX TEMP:  66;

$$

  *****  WEATHER ACROSS SOUTH DAKOTA  *****

CITY           SKY/WX    TMP DP  RH WIND       PRES   REMARKS
SIOUX FALLS    CLOUDY    64  62  93 NE9       29.91R
6HR MIN TEMP:  64; 6HR MAX TEMP:  66; 6HR PCP:  0.01;

BROOKINGS      CLOUDY    64  61  88 E6        29.96R
WATERTOWN      CLOUDY    65  63  93 E3        29.95S
6HR MIN TEMP:  65; 6HR MAX TEMP:  67;

HURON          CLOUDY    65  64  97 E5        29.92R
6HR MIN TEMP:  65; 6HR MAX TEMP:  67; 6HR PCP: TRACE;

SISSETON         N/A     64  64 100 S6        29.94S
ABERDEEN       MOCLDY    60  60 100 S6        29.93S FOG
6HR MIN TEMP:  58; 6HR MAX TEMP:  63;

MITCHELL       CLOUDY    66  64  93 NE6       29.92R
PIERRE         CLOUDY    67  66  97 E3        29.93R
6HR MIN TEMP:  67; 6HR MAX TEMP:  68;

MOBRIDGE       FOG       66  66 100 CALM      29.92R VSB 1
RAPID CITY     CLEAR     57  52  83 NW6       30.00R
6HR MIN TEMP:  55; 6HR MAX TEMP:  62;

$$

  *****  SOME WEATHER IN NEARBY STATES *****

CITY           SKY/WX    TMP DP  RH WIND       PRES   REMARKS
GLASGOW MT     CLEAR     59  52  77 W3        29.89S
6HR MIN TEMP:  58; 6HR MAX TEMP:  68;

GREAT FALLS MT CLOUDY    60  39  45 SW14      30.03F HAZE
6HR MIN TEMP:  57; 6HR MAX TEMP:  67;

CHEYENNE WY    CLOUDY    57  48  72 W10       30.23R
6HR MIN TEMP:  55; 6HR MAX TEMP:  62; 6HR PCP:  0.07;

SCOTTSBLUFF NE CLEAR     57  53  86 W8        30.08R
6HR MIN TEMP:  56; 6HR MAX TEMP:  62;

OMAHA NE       CLOUDY    69  67  93 SE10      29.83R
6HR MIN TEMP:  68; 6HR MAX TEMP:  70; 6HR PCP:  0.85;

DES MOINES IA  LGT RAIN  64  60  87 E12       29.98F
6HR MIN TEMP:  64; 6HR MAX TEMP:  67; 6HR PCP:  0.10;

DAVENPORT IA   CLOUDY    59  57  93 CALM      30.12R
6HR MIN TEMP:  59; 6HR MAX TEMP:  63;

CHICAGO IL     MOCLDY    61  56  83 CALM      30.13R
6HR MIN TEMP:  56; 6HR MAX TEMP:  61;

EAU CLAIRE WI  CLOUDY    61  58  90 S3        30.03R
6HR MIN TEMP:  60; 6HR MAX TEMP:  64;

LA CROSSE WI   CLOUDY    65  60  84 S10       30.05R
6HR MIN TEMP:  64; 6HR MAX TEMP:  67;

$$

  *****  SOME NATIONAL WEATHER *****

CITY           SKY/WX    TMP DP  RH WIND       PRES   REMARKS
LA GUARDIA NY  MOSUNNY   68  56  65 NW7       30.17R
6HR MIN TEMP:  66; 6HR MAX TEMP:  70;

RALEIGH NC     MOSUNNY   65  62  90 NE3       30.18R
6HR MIN TEMP:  60; 6HR MAX TEMP:  65;

ATLANTA GA     CLOUDY    71  67  87 E10       30.12R
6HR MIN TEMP:  70; 6HR MAX TEMP:  72;

NEW ORLEANS LA PTCLDY    73  64  73 N7        29.97S
6HR MIN TEMP:  69; 6HR MAX TEMP:  74;

OKLAHOMA CITY  CLOUDY    71  63  75 SE8       29.99F
6HR MIN TEMP:  70; 6HR MAX TEMP:  77;

ALBUQUERQUE NM PTCLDY    65  56  72 CALM      30.20S
6HR MIN TEMP:  64; 6HR MAX TEMP:  70;

SALT LAKE CITY CLEAR     67  51  56 SE10      30.16F
6HR MIN TEMP:  67; 6HR MAX TEMP:  75;

LOS ANGELES CA PTCLDY    73  67  81 CALM      29.88S


USA.gov is the U.S. government's official web portal to all federal, state and local government web resources and services.